Butte

United States     46˚00′18″N   112˚32′20″W
temp.,
°C
wind,
m/s
gust,
m/s
humid.,
%
clouds,
%
prec.,
mm/h
press.,
hPa
HPBL,
m
29 november, sun
sun2923:00−6˚wsw11750 0.0 103321
02:00−7˚wsw11800 0.0 103421
05:00−8˚ssw11860 0.0 103522
08:00−8˚ssw12851 0.0 103623
11:00−2˚s23441 0.0 1031219
14:00+1˚s243649 0.0 1027276
17:00−4˚ssw224930 0.0 102926
20:00−5˚s22455 0.0 103027
30 november, mon
mon3023:00−6˚s23473 0.0 102930
02:00−7˚ssw23480 0.0 102732
05:00−7˚s34420 0.0 102643
08:00−8˚s234044 0.0 102448
11:00−1˚s482750 0.0 1018348
14:00+2˚sw4123355 0.0 10141216
17:00−3˚wsw3128877 0.2 10181041
20:00−5˚w8147895 0.0 10211107
1 december, tue
tue123:00−6˚w9157263 0.1 10241006
02:00−7˚w37787 0.0 1028302
05:00−9˚w228621 0.0 103228
08:00−9˚w22890 0.0 103549
11:00−6˚w22640 0.0 1035367
14:00−4˚wnw24495 0.0 1034948
17:00−7˚nw12643 0.0 103622
20:00−8˚w22740 0.0 103924
2 december, wed
wed223:00−9˚wnw22790 0.0 103927
02:00−9˚wnw22760 0.0 103932
05:00−9˚wnw22710 0.0 103926
08:00−10˚wnw12710 0.0 104021
11:00−5˚wnw11510 0.0 1037141
14:00−1˚sw11390 0.0 1033226
17:00−6˚ese01550 0.0 103521
20:00−6˚ssw11590 0.0 103521
3 december, thu
thu323:00−6˚ssw12670 0.0 103422
02:00−7˚ssw12630 0.0 103422
05:00−7˚ssw12590 0.0 103322
08:00−8˚ssw12580 0.0 103322
11:00−1˚ssw12390 0.0 1029105
14:00+2˚wsw11370 0.0 1026185
17:00−3˚sw11570 0.0 102722
20:00−4˚wsw12680 0.0 102921